Weather in Losevo

Russia / Kostroma Oblast     58°55′32″N   42°19′59″E
temp.,
°C
wind,
m/s
gust,
m/s
humid.,
%
clouds,
%
prec.,
mm/h
press.,
hPa
HPBL,
m
12 april, mon
mon1200:00−1wnw119772 0.0 103510
03:00−1se119759 0.0 103615
06:00+2ese2589100 0.0 1037101
09:00+6sse367785 0.0 1037339
12:00+11s456844 0.0 1037759
15:00+12s356527 0.0 1036926
18:00+10se267981 0.0 1035168
21:00+7se31191100 0.0 1035300
13 april, tue
tue1300:00+6sse41291100 0.0 1033425
03:00+5se41294100 0.0 1032406
06:00+5sse3996100 0.1 1030383
09:00+7s4892100 0.1 1029382
12:00+13s4970100 0.0 1027605
15:00+16s41063100 0.0 1026905
18:00+14s3976100 0.0 1025318
21:00+11s31285100 0.0 1025283
14 april, wed
wed1400:00+9ssw31376100 0.0 1024303
03:00+7ssw3108285 0.0 1024195
06:00+7ssw3107991 0.0 1024189
09:00+12ssw496289 0.0 1023325
12:00+17ssw594619 0.0 1021896
15:00+18ssw51045100 0.0 10201297
18:00+16ssw4105178 0.0 1020525
21:00+11s3116695 0.0 1019240
15 april, thu
thu1500:00+10ssw31174100 0.0 1019248
03:00+8wsw1184100 0.0 101911
06:00+6nne2697100 0.0 1020202
09:00+8nne3484100 0.0 1020485
12:00+9nne3376100 0.0 1020671
15:00+8nne4578100 0.0 1020614
18:00+4nne4990100 0.0 1021455
21:00+3nne41194100 0.0 1021610
16 april, fri
fri1600:00+2nne41196100 0.3 1022541
03:00+2nne41090100 0.7 1023713
06:00+1nne412801 0.0 1025613
09:00+4nne510490 0.0 10261092
12:00+6nne69425 0.0 10271653
15:00+6nne69355 0.0 10281894
18:00+5nne510425 0.0 10292194
21:00+1n411540 0.0 1031623